Weather History for KTRI - April, 2013

Change the Weather History Date:

Monday, April 29, 2013

  Actual Average Record
Temperature  
Mean Temperature 60 °F 59 °F  
Max Temperature 71 °F 72 °F 86 °F (1996)
Min Temperature 49 °F 46 °F 30 °F (1967)
Degree Days  
Heating Degree Days 5 7  
Month to date heating degree days 285 298  
Since 1 July heating degree days 4200 4248  
Cooling Degree Days 0 1  
Month to date cooling degree days 6 8  
Year to date cooling degree days 6 9  
Growing Degree Days 9 (Base 50)    
Moisture  
Dew Point 51 °F    
Average Humidity 77    
Maximum Humidity 100    
Minimum Humidity 53    
Precipitation  
Precipitation 0.00 in 0.12 in 1.25 in (2005)
Month to date precipitation 4.13 3.22  
Year to date precipitation 20.60 13.48  
Snow  
Snow 0.00 in 0.00 in - ()
Month to date snowfall 0.0 1.1  
Since 1 July snowfall 9.2 13.3  
Snow Depth 0.00 in    
Sea Level Pressure  
Sea Level Pressure 29.98 in    
Wind  
Wind Speed 3 mph (NW)    
Max Wind Speed 13 mph    
Max Gust Speed 18 mph    
Visibility 8 miles    
Events Fog    
T = Trace of Precipitation, MM = Missing Value Source: NWS Daily Summary

Daily Weather History Graph

Daily Weather History Graph

Search for Another Location

Airport or City:

Trip Planner

Search our weather history database for the weather conditions in past years. The results will help you decide how hot, cold, wet, or windy it might be!

Date:

Astronomy

Apr. 29, 2013 Rise Set
Actual Time 6:38 AM EDT 8:16 PM EDT
Civil Twilight 6:10 AM EDT 8:43 PM EDT
Nautical Twilight 5:37 AM EDT 9:17 PM EDT
Astronomical Twilight 5:02 AM EDT 9:52 PM EDT
Moon No Moon Rise 10:00 AM EDT
Length of Visible Light 14h 33m
Length of Day
13h 37m
Waning Gibbous, 80% of the Moon is Illuminated
Apr 29
Waning Gibbous
May 2
Last Quarter
May 9
New
May 18
First Quarter
May 25
Full

Hourly Weather History & Observations

Time (EDT) Temp. Dew Point Humidity Pressure Visibility Wind Dir Wind Speed Gust Speed Precip Events Conditions
12:53 AM 53.1 °F 51.1 °F 93% 29.98 in 10.0 mi North 3.5 mph - N/A   Mostly Cloudy
1:53 AM 52.0 °F 51.1 °F 97% 29.97 in 10.0 mi Calm Calm - N/A   Mostly Cloudy
2:53 AM 52.0 °F 51.1 °F 97% 29.96 in 10.0 mi Calm Calm - N/A   Scattered Clouds
3:53 AM 52.0 °F 50.0 °F 93% 29.96 in 10.0 mi Calm Calm - N/A   Overcast
4:53 AM 53.1 °F 51.1 °F 93% 29.96 in 10.0 mi Calm Calm - N/A   Overcast
5:53 AM 52.0 °F 50.0 °F 93% 29.96 in 9.0 mi Calm Calm - N/A   Mostly Cloudy
6:22 AM 50.0 °F 50.0 °F 100% 30.01 in 2.0 mi Calm Calm - N/A   Mostly Cloudy
6:46 AM 50.0 °F 48.0 °F 93% 30.01 in 2.0 mi Calm Calm - N/A   Mostly Cloudy
6:49 AM 50.0 °F 48.2 °F 94% 30.02 in 0.2 mi Calm Calm - N/A Fog Fog
6:53 AM 48.9 °F 48.0 °F 97% 29.99 in 0.2 mi Calm Calm - N/A Fog Fog
7:33 AM 50.0 °F 50.0 °F 100% 30.03 in 1.0 mi Calm Calm - N/A   Mostly Cloudy
7:41 AM 52.0 °F 51.1 °F 97% 30.04 in 1.5 mi Calm Calm - N/A   Mostly Cloudy
7:53 AM 52.0 °F 51.1 °F 97% 30.00 in 1.5 mi Calm Calm - N/A   Mostly Cloudy
8:15 AM 53.1 °F 52.0 °F 96% 30.04 in 2.0 mi Calm Calm - N/A   Mostly Cloudy
8:53 AM 55.9 °F 53.1 °F 90% 30.00 in 7.0 mi East 3.5 mph - N/A   Mostly Cloudy
9:53 AM 59.0 °F 52.0 °F 78% 30.00 in 10.0 mi Calm Calm - N/A   Mostly Cloudy
10:53 AM 63.0 °F 54.0 °F 72% 30.00 in 10.0 mi North - - N/A   Mostly Cloudy
11:53 AM 63.0 °F 54.0 °F 72% 30.01 in 10.0 mi WNW 8.1 mph - N/A   Mostly Cloudy
12:53 PM 64.9 °F 54.0 °F 68% 30.00 in 10.0 mi West 12.7 mph - N/A   Mostly Cloudy
1:53 PM 66.0 °F 54.0 °F 65% 29.99 in 10.0 mi WNW 9.2 mph 17.3 mph N/A   Mostly Cloudy
2:53 PM 68.0 °F 53.1 °F 59% 29.97 in 10.0 mi NNW 5.8 mph - N/A   Mostly Cloudy
3:53 PM 69.1 °F 52.0 °F 54% 29.94 in 10.0 mi WSW 6.9 mph - N/A   Mostly Cloudy
4:53 PM 69.1 °F 52.0 °F 54% 29.92 in 10.0 mi Variable 5.8 mph - N/A   Scattered Clouds
5:53 PM 70.0 °F 51.1 °F 51% 29.93 in 10.0 mi West 6.9 mph - N/A   Scattered Clouds
6:53 PM 68.0 °F 52.0 °F 56% 29.93 in 10.0 mi NW 3.5 mph - N/A   Partly Cloudy
7:53 PM 64.0 °F 51.1 °F 63% 29.94 in 10.0 mi NNW 4.6 mph - N/A   Partly Cloudy
8:53 PM 57.9 °F 51.1 °F 78% 29.95 in 10.0 mi Calm Calm - N/A   Partly Cloudy
9:53 PM 55.9 °F 51.1 °F 84% 29.97 in 10.0 mi Calm Calm - N/A   Partly Cloudy
10:53 PM 55.0 °F 51.1 °F 86% 29.97 in 10.0 mi Calm Calm - N/A   Scattered Clouds
11:53 PM 55.0 °F 51.1 °F 86% 29.98 in 10.0 mi Calm Calm - N/A   Mostly Cloudy